Temperature
16 16 15 15 15 15 15 15 15 15 14 14 14 14 14 14 14 14 13 13 13 13 13 13 13 13 13 13 13 12 12 12 12 12 12 12 12 12 12 12 11 11 11
15 15 15 15 15 15 15 15 14 14 14 14 14 14 14 14 13 13 13 13 13 13 13 13 13 13 13 12 12 12 12 12 12 12 12 12 12 12 12 11 11 11 11
15 15 15 15 15 14 14 14 14 14 14 14 14 13 13 13 13 13 13 13 13 12 12 12 12 12 12 12 12 12 12 12 12 12 12 12 12 11 11 11 11 11 11
14 14 14 14 14 14 14 14 14 14 13 13 13 13 13 13 13 13 13 12 12 12 12 12 12 12 12 12 12 12 12 12 12 12 12 12 11 11 11 11 11 11 11
14 14 14 14 14 13 13 13 13 13 13 13 13 13 13 12 12 12 12 12 12 12 12 12 12 11 11 11 11 11 11 11 11 11 11 11 11 11 11 11 11 11 11
14 14 13 13 13 13 13 13 13 13 13 12 12 12 12 12 12 12 12 12 12 11 11 11 11 11 11 11 11 11 11 11 11 11 11 11 11 11 11 11 10 10 10
13 13 13 13 13 13 13 12 12 12 12 12 12 12 12 12 12 12 11 11 11 11 11 11 11 11 11 11 11 11 11 11 11 10 11 11 11 11 10 10 10 10 10
13 13 13 12 12 12 12 12 12 12 12 12 11 11 11 11 11 11 11 11 11 11 10 10 10 10 10 10 10 10 10 10 10 10 10 10 10 10 10 10 10 10 10
13 13 12 12 12 12 12 12 12 12 11 11 11 11 11 11 11 11 11 10 10 10 10 10 10 10 10 10 10 10 10 10 10 10 10 10 10 10 10 9 9 9 9
13 12 12 12 12 12 12 12 11 11 11 11 11 10 10 10 10 10 10 10 10 10 10 10 10 10 10 10 10 10 10 10 10 10 10 9 9 9 9 9 9 9 9
12 12 12 12 11 11 11 11 11 11 11 10 10 10 10 10 10 10 10 9 9 10 9 9 9 9 9 9 9 9 9 9 9 9 9 9 9 9 9 9 9 9 9
12 12 12 11 11 11 11 11 11 10 10 10 10 10 9 9 9 9 9 9 9 9 9 9 9 9 9 9 9 9 9 9 9 9 9 9 9 8 9 9 8 8 8
12 11 11 11 11 11 11 11 10 10 10 9 9 9 9 9 9 9 9 9 9 9 9 9 9 8 8 9 9 9 9 8 8 8 8 8 8 8 8 8 8 8 8
11 11 11 11 10 10 10 10 10 9 9 9 9 9 9 9 9 9 8 8 8 8 8 8 8 8 8 8 8 8 8 8 8 8 8 8 8 7 8 8 8 8 8
11 11 10 10 10 10 9 9 9 9 9 9 9 8 8 8 8 8 8 8 8 8 8 8 8 8 8 8 8 8 7 7 7 7 7 7 7 7 7 7 7 7 7
11 10 10 10 9 9 9 9 8 8 8 8 8 8 8 8 8 8 8 8 8 8 8 8 8 7 7 7 7 7 7 7 7 7 6 6 6 6 6 6 6 6 6
10 10 10 9 9 9 8 8 8 8 8 8 7 7 7 7 7 7 7 7 7 7 7 7 7 7 7 7 7 6 6 6 6 6 6 6 6 6 6 6 6 6 6
10 9 9 9 9 8 8 8 8 7 7 7 7 7 7 7 7 7 7 7 7 6 6 6 6 6 6 6 6 6 6 6 6 6 6 5 5 5 5 5 5 5 5
9 9 9 8 8 8 8 7 7 7 7 7 7 6 6 6 6 6 6 6 6 6 5 5 5 5 5 5 5 5 5 5 5 5 5 5 5 5 5 5 5 5 5
8 8 8 8 7 7 7 7 7 7 6 6 6 6 6 6 6 6 5 5 5 5 5 5 5 5 5 5 5 5 5 5 5 5 5 5 5 5 5 5 5 4 5
8 8 7 7 7 7 7 6 6 6 6 6 6 6 5 5 5 5 5 5 5 5 4 4 4 4 4 4 4 4 4 4 4 4 4 4 4 4 4 4 4 4 4
7 7 7 7 7 6 6 6 6 6 5 5 5 5 5 5 5 4 4 4 4 4 4 4 4 4 4 4 4 4 4 4 4 4 4 4 4 4 4 4 4 4 4
7 7 6 6 6 6 6 5 5 5 5 5 5 5 5 4 4 4 4 4 4 4 4 4 4 4 4 4 4 4 4 4 3 3 3 3 3 3 3 3 3 3 3
6 6 6 6 6 5 5 5 5 5 5 5 5 4 4 4 4 4 4 4 4 4 4 4 4 4 4 4 3 3 3 3 3 3 3 3 3 3 3 3 3 3 3
6 5 5 5 5 5 5 5 4 4 4 4 4 4 4 4 4 4 3 3 3 3 3 3 3 3 3 3 3 3 3 3 3 3 3 2 2 2 2 2 2 2 2
5 5 5 4 4 4 4 4 4 4 4 3 4 4 4 4 3 3 3 3 3 3 3 3 3 3 3 3 3 2 2 2 2 2 2 2 2 2 2 2 2 2 2
Wind_Speed
3 3 3 3 2 2 2 3 4 3 4 5 5 4 4 3 3 3 3 3 3 2 1 2 2 1 1 2 2 3 3 3 3 3 2 1 2 2 2 3 4 4 4
4 3 3 3 3 2 2 3 3 3 3 4 4 4 4 4 3 3 3 3 3 2 1 1 2 1 1 2 2 3 3 3 4 3 2 1 2 3 3 2 3 3 5
3 3 2 2 3 3 3 3 2 2 3 3 4 4 4 4 4 4 4 3 3 3 2 2 2 1 2 1 2 2 3 3 2 3 2 2 1 1 1 1 1 2 4
3 3 2 3 3 3 2 2 2 3 3 3 4 4 5 5 5 4 4 4 3 2 2 2 2 2 3 3 2 3 2 2 2 2 2 2 1 1 1 1 2 2 2
3 3 3 2 2 2 2 2 1 2 3 3 3 3 3 4 4 5 4 4 3 2 2 2 3 3 3 2 2 2 3 2 2 2 2 1 1 1 2 2 3 2 2
4 3 3 2 1 2 2 2 2 1 1 2 3 4 3 3 3 5 5 4 3 3 2 2 3 3 2 3 3 3 3 4 4 3 3 3 4 4 3 3 3 1 2
4 3 3 2 2 2 2 3 3 2 2 2 2 4 4 3 4 5 6 4 3 3 3 3 2 2 2 2 3 2 3 4 5 5 4 5 5 5 4 3 3 3 4
4 3 3 3 2 2 2 2 2 2 2 2 2 3 3 3 4 5 5 4 3 3 3 3 3 3 2 2 2 2 2 3 4 3 4 5 5 4 5 5 5 3 1
4 4 4 4 3 3 3 3 2 3 2 2 2 3 3 3 3 4 4 3 2 3 3 3 3 3 3 2 2 2 2 3 3 3 4 4 4 4 4 3 2 1 2
5 5 4 4 4 4 3 2 2 3 3 3 2 2 3 3 3 4 5 3 2 2 2 2 3 3 3 2 3 3 3 3 2 1 1 2 2 2 4 5 5 3 2
4 4 4 4 4 4 3 2 2 2 3 2 2 1 2 2 2 3 4 3 3 2 2 2 3 3 2 2 2 3 5 3 2 2 1 1 1 1 2 3 4 4 4
3 4 4 3 3 3 4 2 2 3 3 2 1 1 1 1 1 2 3 3 3 3 3 3 3 2 2 2 2 2 2 1 1 1 1 1 2 2 2 2 3 4 5
4 4 4 3 3 3 4 4 2 2 2 2 2 1 2 2 1 2 3 3 3 2 2 2 2 2 1 1 2 1 0 1 1 1 2 2 3 3 2 1 1 2 2
4 3 4 4 3 3 3 3 3 2 2 2 2 2 1 1 2 2 2 2 2 1 1 1 0 0 0 1 1 1 0 1 2 2 2 2 2 1 1 1 1 1 1
3 3 3 4 4 3 2 2 3 3 3 3 3 3 2 2 3 2 1 2 2 2 1 1 1 1 1 1 1 1 1 1 1 2 2 2 2 2 2 1 1 1 2
4 3 3 3 3 3 3 1 0 1 2 3 2 2 2 2 2 1 1 1 1 3 3 1 1 1 1 1 1 1 1 1 2 2 2 2 2 2 2 2 1 2 3
5 4 3 3 3 3 3 3 1 1 1 0 1 2 2 1 1 1 1 2 3 4 2 1 1 2 2 2 2 2 2 2 2 2 2 2 2 2 2 2 2 2 3
4 5 4 3 3 3 3 3 3 2 1 2 2 2 2 2 1 1 2 3 2 1 1 1 2 2 1 2 2 2 2 2 1 2 2 2 2 2 2 3 3 3 4
4 3 3 3 3 3 3 3 2 2 2 2 1 2 2 2 1 1 2 2 2 2 2 2 2 2 2 2 2 2 2 2 2 2 2 2 2 2 3 4 3 4 4
3 5 4 3 3 3 3 3 3 2 2 2 2 2 1 1 1 1 2 2 2 2 3 3 2 2 2 2 2 2 2 2 2 2 2 2 3 3 3 4 3 3 4
3 3 5 3 3 4 3 4 3 3 3 3 3 3 3 3 3 4 3 3 3 3 3 3 3 3 3 2 2 3 3 2 3 2 2 2 2 2 3 3 3 3 3
3 3 3 3 3 3 4 4 4 4 4 4 3 3 5 3 3 3 4 4 4 4 4 3 3 3 3 3 3 3 3 3 3 3 2 2 2 3 2 2 3 3 3
2 3 3 3 3 4 3 3 3 4 4 4 4 4 4 4 4 4 4 4 4 4 4 4 4 4 4 4 4 4 4 4 4 3 3 3 2 3 3 3 3 3 4
3 3 3 3 3 3 3 3 3 4 4 4 4 4 4 4 4 5 5 4 4 4 4 4 5 6 6 5 4 4 5 5 5 4 4 4 3 3 3 3 3 4 4
3 3 3 3 3 4 4 4 4 4 4 4 4 4 4 4 4 4 4 4 4 4 5 5 5 5 7 7 6 6 6 6 6 4 4 3 4 4 4 4 4 3 3
2 2 3 3 3 3 4 4 4 4 4 4 4 4 4 4 4 4 4 3 4 4 5 5 6 6 7 7 8 8 7 7 7 6 4 3 3 3 3 3 4 3 3
Wind_Direction
183 193 186 192 196 178 179 197 203 202 191 183 182 181 182 181 174 161 171 166 170 193 200 194 230 224 204 202 181 172 176 163 192 253 244 220 195 212 222 222 225 227 234
179 176 184 183 178 185 207 210 196 196 195 190 180 172 176 178 169 167 179 172 169 180 200 198 246 224 202 209 187 188 190 180 178 217 245 220 219 214 203 211 223 232 238
167 164 172 179 181 195 209 204 183 179 186 182 170 172 178 177 173 178 177 175 178 187 186 193 232 192 211 221 195 197 202 191 171 182 222 223 225 204 193 233 225 249 255
160 160 175 192 191 199 197 187 185 181 178 181 183 185 185 182 178 178 177 179 187 199 204 212 217 199 211 214 208 210 197 180 172 177 205 219 224 223 164 205 256 257 258
160 171 198 196 180 181 179 176 176 172 187 185 177 182 185 186 186 176 180 183 190 208 225 238 236 230 229 214 206 201 186 185 183 192 211 216 222 198 212 210 221 250 267
164 187 193 175 167 187 193 173 171 168 180 168 176 176 173 189 177 172 174 180 187 198 223 250 254 248 254 247 242 215 190 187 198 199 217 219 227 221 213 206 198 202 265
170 183 185 181 190 206 194 176 182 184 164 160 188 177 180 193 171 172 175 176 186 206 220 236 255 267 265 249 265 266 244 228 206 199 209 225 226 217 196 206 211 207 229
175 185 187 176 190 201 181 186 196 183 171 179 185 183 182 197 176 172 175 177 186 212 224 224 225 249 250 228 229 250 263 256 236 219 214 232 234 224 207 208 209 214 250
180 193 194 179 174 175 186 197 197 178 174 173 169 176 182 213 184 170 162 173 193 234 245 235 226 235 247 214 192 220 264 280 276 251 232 237 241 230 197 159 158 166 249
197 200 189 177 171 176 186 189 183 171 173 160 158 190 193 212 196 172 163 172 202 241 258 254 246 241 247 230 204 207 234 256 266 285 311 311 286 249 202 189 188 193 212
192 180 169 172 173 170 164 155 149 144 148 152 166 227 219 216 208 187 175 180 199 219 234 250 256 251 237 240 231 222 238 244 224 214 234 280 311 296 253 217 200 194 202
167 163 164 164 163 150 140 132 128 131 131 137 145 290 296 257 216 200 191 187 181 196 226 240 247 242 234 246 251 260 260 224 173 180 216 259 263 265 263 247 227 222 223
158 163 160 151 145 141 140 139 127 131 136 151 160 201 281 302 287 244 218 214 208 202 219 227 238 231 226 240 267 289 100 133 159 194 228 245 253 256 265 277 292 264 277
162 166 157 153 149 139 140 145 145 155 160 168 177 202 252 294 294 275 258 240 227 219 215 209 218 355 326 295 314 314 274 208 198 215 240 256 271 279 272 249 250 259 274
158 158 156 160 158 150 148 158 167 174 170 177 197 197 201 240 257 234 198 215 210 204 152 88 59 30 9 357 349 325 310 296 253 246 236 250 263 265 264 258 238 229 237
158 160 160 157 160 162 160 138 103 152 155 167 161 168 218 237 226 194 176 147 157 158 132 139 174 211 235 257 268 286 286 279 267 247 238 243 252 255 264 262 240 225 238
171 171 167 163 162 165 168 169 197 313 342 299 226 211 221 234 211 203 177 112 105 118 113 191 224 233 241 245 245 246 259 265 266 253 242 249 258 264 266 264 254 252 252
169 170 165 172 173 176 180 179 177 185 258 304 295 260 241 225 189 171 161 116 86 111 190 232 247 257 262 259 257 253 256 265 263 260 259 258 254 258 268 268 253 247 254
172 175 174 176 178 180 179 176 174 184 210 248 289 301 280 241 193 160 135 144 183 214 228 240 247 250 256 256 261 261 260 264 262 251 255 258 257 253 256 255 255 256 253
188 181 175 176 180 180 182 184 188 197 218 235 239 244 244 163 184 206 196 203 211 225 227 232 239 242 243 245 251 253 256 267 273 263 264 264 258 252 255 255 251 251 249
197 200 189 182 190 193 192 196 199 203 217 234 242 237 207 199 215 220 219 220 224 228 229 231 235 238 238 239 236 239 241 253 260 260 262 268 272 270 268 260 258 253 253
197 200 198 196 197 199 201 205 204 211 223 231 241 243 230 218 220 224 229 234 233 229 225 222 231 231 228 228 230 233 238 246 250 251 256 267 273 273 275 273 272 267 260
191 194 195 197 199 203 205 217 220 224 230 230 229 229 226 226 227 229 233 236 235 232 228 223 229 238 240 237 230 224 229 236 237 235 241 253 260 261 264 266 263 265 269
189 194 195 197 201 205 210 220 226 230 236 234 230 229 228 227 230 232 233 237 239 238 235 230 232 235 236 240 240 237 240 242 238 234 230 238 250 257 254 258 260 258 260
191 201 200 201 205 212 218 224 229 234 240 240 231 229 230 230 232 235 233 232 237 240 241 242 242 240 239 238 240 241 240 240 242 241 233 230 244 251 254 255 256 261 263
181 197 208 208 209 212 216 223 232 239 242 244 240 237 235 233 232 232 230 231 239 245 247 247 247 247 247 242 241 241 241 243 245 246 236 229 238 250 253 254 252 252 260
Height
1514 1515 1516 1516 1516 1517 1517 1517 1518 1519 1519 1520 1520 1521 1521 1522 1522 1523 1523 1524 1524 1525 1525 1526 1526 1527 1527 1528 1528 1529 1529 1530 1530 1530 1530 1531 1531 1531 1531 1531 1531 1530 1530
1512 1512 1512 1513 1513 1513 1514 1514 1515 1516 1516 1517 1517 1518 1518 1519 1519 1520 1520 1521 1521 1522 1522 1523 1524 1524 1524 1525 1525 1526 1526 1527 1527 1527 1527 1528 1528 1528 1528 1528 1528 1528 1528
1509 1509 1509 1509 1510 1510 1510 1511 1512 1512 1513 1513 1514 1515 1515 1516 1516 1517 1517 1518 1519 1519 1520 1520 1521 1521 1521 1522 1522 1523 1523 1524 1524 1524 1524 1525 1525 1525 1525 1525 1526 1525 1525
1506 1506 1506 1506 1506 1507 1507 1508 1508 1509 1510 1510 1510 1511 1512 1512 1513 1514 1514 1515 1516 1516 1517 1517 1518 1518 1518 1519 1519 1520 1520 1521 1521 1521 1521 1522 1522 1522 1522 1522 1522 1522 1522
1503 1502 1503 1503 1504 1504 1504 1504 1505 1506 1506 1507 1507 1508 1509 1509 1510 1510 1511 1512 1513 1513 1513 1514 1514 1515 1515 1516 1516 1516 1517 1517 1517 1517 1518 1518 1518 1518 1519 1519 1519 1519 1519
1499 1499 1500 1500 1500 1501 1501 1501 1502 1502 1503 1503 1504 1504 1505 1506 1507 1507 1508 1509 1509 1510 1510 1510 1511 1511 1512 1512 1513 1513 1514 1514 1513 1514 1514 1514 1514 1515 1515 1515 1515 1515 1515
1496 1496 1496 1497 1497 1497 1498 1498 1499 1499 1500 1500 1500 1501 1501 1502 1503 1504 1505 1505 1506 1506 1507 1507 1507 1508 1508 1509 1509 1509 1510 1510 1511 1511 1510 1510 1511 1511 1511 1511 1511 1511 1512
1493 1493 1493 1494 1494 1494 1495 1495 1495 1496 1496 1497 1497 1498 1498 1499 1500 1501 1501 1502 1503 1503 1503 1503 1504 1504 1504 1505 1505 1505 1505 1505 1506 1506 1506 1507 1507 1508 1508 1508 1508 1508 1508
1490 1490 1491 1491 1491 1491 1492 1492 1492 1493 1493 1494 1494 1495 1495 1496 1497 1497 1498 1499 1499 1500 1500 1500 1500 1500 1501 1501 1501 1501 1501 1501 1502 1502 1502 1502 1503 1503 1504 1504 1504 1504 1503
1487 1487 1488 1488 1488 1489 1489 1489 1489 1490 1490 1491 1491 1492 1493 1493 1494 1494 1495 1495 1495 1496 1496 1497 1497 1497 1497 1498 1498 1497 1497 1497 1497 1497 1498 1498 1498 1499 1500 1500 1500 1500 1499
1485 1485 1485 1486 1486 1486 1487 1487 1487 1487 1487 1488 1488 1489 1490 1490 1491 1491 1492 1492 1492 1492 1492 1493 1493 1494 1494 1494 1494 1494 1493 1494 1493 1493 1493 1493 1494 1494 1495 1495 1496 1496 1496
1482 1483 1483 1483 1484 1484 1484 1484 1485 1485 1485 1485 1485 1486 1487 1487 1488 1488 1488 1489 1489 1489 1489 1489 1490 1490 1490 1490 1490 1490 1490 1490 1489 1489 1489 1489 1489 1490 1490 1491 1491 1492 1492
1480 1480 1480 1481 1481 1482 1482 1482 1482 1482 1482 1482 1483 1483 1483 1484 1484 1485 1485 1485 1486 1486 1486 1486 1486 1487 1487 1486 1487 1486 1486 1486 1485 1485 1485 1485 1486 1486 1486 1486 1486 1487 1487
1477 1477 1478 1478 1479 1479 1479 1479 1480 1479 1479 1480 1480 1480 1480 1481 1481 1481 1481 1482 1482 1483 1483 1483 1483 1483 1483 1483 1483 1483 1482 1482 1482 1482 1482 1482 1482 1482 1482 1482 1482 1482 1482
1475 1475 1476 1476 1476 1477 1477 1477 1477 1477 1477 1478 1477 1477 1477 1477 1478 1478 1478 1478 1478 1479 1479 1479 1479 1479 1479 1479 1479 1479 1479 1479 1478 1478 1478 1478 1478 1478 1478 1478 1478 1478 1478
1472 1472 1473 1473 1474 1474 1474 1475 1475 1476 1476 1476 1476 1475 1475 1475 1475 1475 1475 1475 1475 1476 1476 1475 1475 1476 1476 1475 1476 1475 1475 1475 1474 1474 1474 1474 1474 1474 1473 1473 1473 1473 1473
1469 1470 1470 1471 1471 1472 1472 1472 1472 1473 1473 1473 1473 1472 1472 1472 1472 1472 1472 1472 1472 1472 1472 1471 1471 1472 1472 1472 1472 1472 1471 1471 1471 1470 1470 1470 1470 1470 1469 1469 1469 1469 1469
1466 1467 1468 1468 1468 1469 1469 1469 1469 1469 1469 1469 1470 1470 1470 1469 1469 1469 1469 1469 1468 1468 1468 1468 1468 1468 1468 1468 1468 1468 1468 1467 1467 1467 1466 1466 1466 1466 1465 1465 1465 1464 1464
1463 1464 1464 1465 1465 1465 1466 1466 1466 1466 1466 1466 1466 1467 1467 1466 1466 1466 1466 1465 1465 1465 1465 1465 1465 1465 1465 1465 1464 1464 1464 1464 1464 1463 1463 1463 1462 1462 1461 1461 1461 1460 1460
1460 1461 1461 1461 1462 1462 1462 1462 1463 1463 1463 1463 1463 1463 1463 1463 1462 1462 1462 1462 1461 1461 1462 1462 1462 1462 1462 1462 1461 1461 1460 1460 1460 1459 1459 1459 1458 1458 1457 1456 1456 1456 1455
1457 1457 1458 1458 1458 1458 1459 1459 1459 1459 1459 1459 1459 1460 1460 1459 1458 1458 1458 1458 1458 1458 1458 1458 1458 1458 1458 1458 1457 1457 1456 1456 1456 1455 1455 1454 1454 1453 1453 1452 1451 1451 1451
1453 1454 1454 1454 1454 1455 1455 1456 1456 1456 1456 1456 1456 1456 1456 1455 1455 1454 1454 1454 1454 1454 1455 1454 1454 1454 1454 1454 1453 1453 1452 1452 1452 1451 1450 1450 1449 1449 1448 1448 1447 1446 1446
1449 1450 1450 1450 1451 1451 1452 1452 1452 1452 1452 1452 1452 1452 1451 1451 1451 1450 1450 1450 1450 1450 1450 1450 1450 1450 1450 1450 1449 1449 1448 1448 1448 1447 1446 1445 1445 1444 1444 1443 1442 1442 1441
1445 1446 1446 1446 1447 1447 1447 1448 1448 1448 1448 1447 1447 1447 1447 1447 1447 1446 1446 1446 1446 1446 1446 1446 1445 1445 1445 1445 1445 1444 1444 1444 1443 1443 1442 1441 1440 1440 1439 1438 1438 1437 1437
1442 1442 1442 1442 1442 1443 1443 1443 1443 1444 1443 1443 1443 1443 1443 1442 1442 1442 1442 1441 1441 1441 1441 1441 1440 1440 1440 1440 1440 1439 1439 1439 1439 1438 1438 1437 1436 1436 1435 1434 1434 1433 1433
1438 1438 1438 1438 1438 1438 1439 1439 1439 1439 1439 1438 1438 1438 1438 1437 1437 1437 1436 1436 1436 1436 1436 1435 1435 1435 1435 1434 1434 1434 1434 1434 1434 1433 1433 1432 1431 1431 1430 1430 1429 1429 1428